Orlando International, FL

5:28 AM EDT on September 24, 2017 (GMT -0400)
Orlando International

Weather History for KMCO - November, 2013

Change the Weather History Date:

Monday, November 18, 2013

  Actual Average Record
Temperature  
Mean Temperature 77 °F 68 °F  
Max Temperature 85 °F 78 °F 88 °F (1986)
Min Temperature 68 °F 58 °F 34 °F (1923)
Degree Days  
Heating Degree Days 0 2  
Month to date heating degree days 4 19  
Since 1 July heating degree days 4 24  
Cooling Degree Days 12 4  
Month to date cooling degree days 132 103  
Year to date cooling degree days 3492 3310  
Growing Degree Days 26 (Base 50)    
Moisture  
Dew Point 68 °F    
Average Humidity 79    
Maximum Humidity 100    
Minimum Humidity 58    
Precipitation  
Precipitation 0.00 in 0.06 in 1.20 in (1915)
Month to date precipitation 0.49 1.32  
Year to date precipitation 42.01 47.30  
Sea Level Pressure  
Sea Level Pressure 29.99 in    
Wind  
Wind Speed 4 mph (West)    
Max Wind Speed 13 mph    
Max Gust Speed 17 mph    
Visibility 10 miles    
Events Fog    
T = Trace of Precipitation, MM = Missing Value Source: NWS Daily Summary

Daily Weather History Graph

Daily Weather History Graph

Search for Another Location

Airport or City:

Trip Planner

Search our weather history database for the weather conditions in past years. The results will help you decide how hot, cold, wet, or windy it might be!

Date:

Astronomy

Nov. 18, 2013 Rise Set
Actual Time 6:50 AM EST 5:30 PM EST
Civil Twilight 6:25 AM EST 5:55 PM EST
Nautical Twilight 5:56 AM EST 6:24 PM EST
Astronomical Twilight 5:28 AM EST 6:52 PM EST
Moon 6:33 PM EST (11/18) 7:36 AM EST (11/18)
Length of Visible Light 11h 30m
Length of Day
10h 40m
Full, 99% of the Moon is Illuminated
Nov 18
Full
Nov 25
Last Quarter
Dec 2
New
Dec 9
First Quarter
Dec 17
Full

Hourly Weather History & Observations

Time (EST) Temp. Heat Index Dew Point Humidity Pressure Visibility Wind Dir Wind Speed Gust Speed Precip Events Conditions
12:53 AM 72.0 °F - 70.0 °F 93% 30.05 in 10.0 mi Calm Calm - N/A   Scattered Clouds
1:53 AM 71.1 °F - 69.1 °F 93% 30.03 in 10.0 mi Calm Calm - N/A   Mostly Cloudy
2:53 AM 70.0 °F - 69.1 °F 97% 30.02 in 10.0 mi Calm Calm - N/A   Mostly Cloudy
3:53 AM 70.0 °F - 69.1 °F 97% 30.01 in 10.0 mi Calm Calm - N/A   Mostly Cloudy
4:53 AM 70.0 °F - 68.0 °F 93% 30.01 in 10.0 mi Calm Calm - N/A   Mostly Cloudy
5:53 AM 69.1 °F - 68.0 °F 96% 30.00 in 10.0 mi Calm Calm - N/A   Scattered Clouds
6:53 AM 69.1 °F - 68.0 °F 96% 30.01 in 10.0 mi Calm Calm - N/A Fog Patches of Fog
7:53 AM 71.1 °F - 69.1 °F 93% 30.01 in 8.0 mi SSW 4.6 mph - N/A   Scattered Clouds
8:53 AM 75.9 °F - 70.0 °F 82% 30.02 in 10.0 mi West 4.6 mph - N/A   Scattered Clouds
9:53 AM 80.1 °F 82.3 °F 66.9 °F 64% 30.03 in 10.0 mi WSW 6.9 mph - N/A   Scattered Clouds
10:53 AM 82.0 °F 84.5 °F 66.9 °F 60% 30.01 in 10.0 mi West 6.9 mph - N/A   Mostly Cloudy
11:53 AM 82.9 °F 85.8 °F 68.0 °F 60% 29.99 in 10.0 mi West 6.9 mph - N/A   Mostly Cloudy
12:53 PM 84.0 °F 87.0 °F 68.0 °F 58% 29.98 in 10.0 mi NW 10.4 mph - N/A   Mostly Cloudy
1:53 PM 84.0 °F 87.0 °F 68.0 °F 58% 29.95 in 10.0 mi NNW 8.1 mph - N/A   Overcast
2:53 PM 82.9 °F 85.8 °F 68.0 °F 60% 29.95 in 10.0 mi WNW 9.2 mph - N/A   Overcast
3:53 PM 82.0 °F 84.9 °F 68.0 °F 62% 29.95 in 10.0 mi WNW 11.5 mph - N/A   Mostly Cloudy
4:53 PM 81.0 °F 83.8 °F 68.0 °F 65% 29.94 in 10.0 mi NNW 10.4 mph - N/A   Mostly Cloudy
5:53 PM 78.1 °F - 66.9 °F 68% 29.96 in 10.0 mi NW 4.6 mph - N/A   Mostly Cloudy
6:53 PM 77.0 °F - 66.9 °F 71% 29.96 in 10.0 mi NW 5.8 mph - N/A   Mostly Cloudy
7:53 PM 75.9 °F - 66.9 °F 74% 29.96 in 10.0 mi West 4.6 mph - N/A   Mostly Cloudy
8:53 PM 73.9 °F - 66.9 °F 79% 29.94 in 10.0 mi SW 3.5 mph - N/A   Overcast
9:53 PM 73.0 °F - 68.0 °F 84% 29.94 in 10.0 mi Calm Calm - N/A   Overcast
10:53 PM 71.1 °F - 68.0 °F 90% 29.94 in 10.0 mi SW 4.6 mph - N/A   Mostly Cloudy
11:53 PM 71.1 °F - 68.0 °F 90% 29.94 in 10.0 mi South 3.5 mph - N/A   Mostly Cloudy